TimeAKDT,TemperatureF,Dew PointF,Humidity,Sea Level PressureIn,VisibilityMPH,Wind Direction,Wind SpeedMPH,Gust SpeedMPH,PrecipitationIn,Events,Conditions,WindDirDegrees,DateUTC
12:12 AM,44.6,42.8,93,29.17,6.0,East,10.4,18.4,0.01,Rain,Light Rain,90,2012-10-15 08:12:00
12:54 AM,45.0,43.0,93,29.20,10.0,East,9.2,24.2,0.04,Rain,Light Rain,90,2012-10-15 08:54:00
1:54 AM,45.0,44.1,97,29.22,10.0,East,12.7,23.0,0.01,Rain,Light Rain,80,2012-10-15 09:54:00
2:54 AM,46.0,44.1,93,29.23,6.0,East,11.5,27.6,0.05,Rain,Rain,90,2012-10-15 10:54:00
3:54 AM,46.0,44.1,93,29.24,10.0,East,11.5,21.9,0.02,Rain,Light Rain,100,2012-10-15 11:54:00
4:14 AM,46.4,44.6,93,29.24,10.0,East,13.8,23.0,0.00,Rain,Light Rain,90,2012-10-15 12:14:00
4:25 AM,46.4,44.6,93,29.25,7.0,East,12.7,27.6,0.01,Rain,Light Rain,90,2012-10-15 12:25:00
4:54 AM,46.0,41.0,83,29.28,10.0,ESE,12.7,23.0,0.01,,Mostly Cloudy,110,2012-10-15 12:54:00
5:54 AM,44.1,41.0,89,29.30,10.0,East,8.1,-,N/A,,Mostly Cloudy,90,2012-10-15 13:54:00
6:54 AM,45.0,42.1,90,29.28,10.0,ENE,12.7,20.7,0.00,Rain,Light Rain,70,2012-10-15 14:54:00
7:22 AM,44.6,42.8,93,29.28,10.0,East,8.1,17.3,0.00,,Mostly Cloudy,100,2012-10-15 15:22:00
7:54 AM,45.0,41.0,86,29.29,10.0,East,12.7,21.9,0.00,,Overcast,100,2012-10-15 15:54:00
8:09 AM,44.6,41.0,87,29.28,10.0,East,8.1,21.9,N/A,,Overcast,100,2012-10-15 16:09:00
8:47 AM,44.6,42.8,93,29.28,10.0,ESE,9.2,-,N/A,,Overcast,110,2012-10-15 16:47:00
8:54 AM,45.0,42.1,90,29.29,10.0,East,8.1,21.9,N/A,,Overcast,90,2012-10-15 16:54:00
9:54 AM,46.0,42.1,86,29.27,10.0,East,9.2,20.7,0.00,,Overcast,100,2012-10-15 17:54:00
10:34 AM,46.4,41.0,81,29.25,10.0,East,10.4,17.3,N/A,,Mostly Cloudy,90,2012-10-15 18:34:00
10:54 AM,46.9,42.1,83,29.25,10.0,East,10.4,18.4,N/A,,Overcast,80,2012-10-15 18:54:00
11:45 AM,46.4,42.8,87,29.23,10.0,East,13.8,21.9,0.00,,Mostly Cloudy,90,2012-10-15 19:45:00
11:54 AM,46.9,42.1,83,29.24,10.0,East,10.4,21.9,0.00,,Mostly Cloudy,100,2012-10-15 19:54:00
12:03 PM,46.4,42.8,87,29.22,10.0,East,9.2,19.6,N/A,,Mostly Cloudy,100,2012-10-15 20:03:00
12:40 PM,46.4,42.8,87,29.21,10.0,ENE,9.2,-,N/A,,Overcast,70,2012-10-15 20:40:00
12:54 PM,46.0,41.0,83,29.22,10.0,East,9.2,17.3,N/A,,Overcast,80,2012-10-15 20:54:00
1:09 PM,46.4,42.8,87,29.20,10.0,East,9.2,18.4,0.00,Rain,Light Rain,80,2012-10-15 21:09:00
1:16 PM,46.4,42.8,87,29.20,10.0,ENE,8.1,18.4,0.00,Rain,Light Rain,70,2012-10-15 21:16:00
1:54 PM,45.0,41.0,86,29.19,10.0,ENE,10.4,19.6,0.01,Rain,Light Rain,70,2012-10-15 21:54:00
2:54 PM,44.1,41.0,89,29.16,8.0,ENE,8.1,-,0.06,Rain,Light Rain,70,2012-10-15 22:54:00
3:11 PM,44.6,39.2,81,29.14,6.0,East,4.6,-,0.02,Rain,Rain,80,2012-10-15 23:11:00
3:54 PM,43.0,41.0,93,29.12,7.0,East,4.6,-,0.07,Rain,Rain,100,2012-10-15 23:54:00
4:54 PM,42.1,41.0,96,29.09,6.0,East,4.6,-,0.07,Rain,Light Rain,90,2012-10-16 00:54:00
5:31 PM,42.8,41.0,93,29.07,6.0,East,5.8,-,0.06,Rain,Rain,100,2012-10-16 01:31:00
5:54 PM,42.1,41.0,96,29.08,7.0,ESE,5.8,-,0.10,Rain,Rain,110,2012-10-16 01:54:00
6:43 PM,41.0,39.2,93,29.06,6.0,East,5.8,-,0.09,Rain,Rain,90,2012-10-16 02:43:00
6:54 PM,41.0,39.9,96,29.06,6.0,East,5.8,-,0.11,Rain,Rain,90,2012-10-16 02:54:00
7:54 PM,41.0,39.0,93,29.04,10.0,East,6.9,-,0.04,Rain,Light Rain,100,2012-10-16 03:54:00
8:41 PM,41.0,39.2,93,29.04,10.0,ESE,6.9,-,0.03,Rain,Light Rain,110,2012-10-16 04:41:00
8:54 PM,41.0,39.0,93,29.05,10.0,ESE,6.9,-,0.04,Rain,Light Rain,110,2012-10-16 04:54:00
9:54 PM,41.0,39.0,93,29.04,10.0,East,6.9,-,0.00,Rain,Light Rain,100,2012-10-16 05:54:00
10:18 PM,39.2,39.2,100,29.04,10.0,East,5.8,-,0.00,Rain,Light Rain,100,2012-10-16 06:18:00
10:54 PM,41.0,39.9,96,29.06,10.0,East,4.6,-,0.00,Rain,Light Rain,100,2012-10-16 06:54:00
11:54 PM,41.0,39.9,96,29.06,10.0,East,3.5,-,0.01,,Overcast,90,2012-10-16 07:54:00